STARLINK-1347, 45586

Orbit data source: Space-Track

STARLINK-1347, 45586 is a payload satellite owned by SpaceX/Seattle (US) in LEO that was launched on Wed, 22 Apr 2020 UTC via an FALCON 9 launch vehicle from the Air Force Eastern Test Range (AFETR). Payloads include a variety of satellites, spacecraft, and rockets equipped with specific instruments for various scientific and technological missions. These include communications satellites like Starlink; space stations such as the ISS; scientific satellites like the Hubble; Earth observation satellites from companies like Planet Labs, Umbra, and HawkEye 360; GPS; miniature CubeSats for education and research; and military/defense satellites.

Loading next visibility...
STARLINK-1347 details
Identifier
45586, 2020-025BH
Orbit
LEO
Last TLE update6 hours ago
Origin
Flag of USSpaceX/Seattle (US)
ManufacturerSpaceX/Seattle
MissionOperational Commercial Communications
Bus & MotorSTARLINK, Unknown motor
Mass260 kg wet, ~248 kg dry
Launch date (UTC)
2020-04-22 (5 years ago)
Launch vehicle
FALCON 9
Launch site
Air Force Eastern Test Range (AFETR)
Object type
Payload
Rocket body
Debris
Shape & HBRBox + 1 Pan, 8.86 m
Radar Cross Section13.562 m², Large (>1 m²)

Expand to show TLE details & history

TLE from 6 hours ago
0 STARLINK-1347
1 45586U 20025BH  24340.15956179  .00004152  00000-0  29742-3 0  9992
2 45586  53.0539 339.5280 0001637  90.9959 269.1217 15.06404343255632
Epoch: 2024-12-05T03:49Z
Definitive object data (Epoch: 2024-12-05T03:49:46.138Z)
Latitude-0.00007°
Longitude-152.35866°
Altitude548.095 km
Speed7.589 km/s
True Right ascension22h 38m 06s
True Declination0° 00' 00"
Sunlit
Object was in daylight at TLE epoch
Visualization TLE readout
Latitude-17.02253°
Longitude-166.77063°
Altitude552.242 km
Speed7.586 km/s
Apparent Right ascension20h 59m 49s
Apparent Declination-28° 21' 07"
Sunlit
Object is in daylight
Visualization observer readout
Local Sidereal Time08:04:35
Azimuth311.24° NW
Elevation-73.779°
Doppler factor1
Orbital elements
Apogee altitude548.603 km
Perigee altitude546.335 km
Semi-major axis6,925.606 km
Eccentricity0.0001637
Inclination53.0539°
RAAN339.528°
Arg. of periapsis90.9959°
True anomaly269.10294°
Mean anomaly269.1217°
Eccentric anomaly269.11232°
Mean motion3.76579 °/min
BSTAR0.00029742
Orbital period95.6 mins
Loading maneuver chart data...
Loading historical data...
Loading historical data...
Loading historical data...
Loading historical data...
Loading historical data...
Loading historical data...
Loading historical data...

STARLINK-1347 Visibility forecast

Observer location: undefined°, undefined

Span
Click to sort rows by Start time (UTC) header in descending order
Start Az.
Max El. time (UTC)
Max El. Az.
Max El.
End time (UTC)
End Az.
6 mins2024-12-05 10:44:15.163Z288.306° WNW2024-12-05 10:47:15.163Z228.413° WSW29.137°2024-12-05 10:50:15.163Z167.944° S
6 mins2024-12-06 02:17:15.163Z200.276° SSW2024-12-06 02:20:15.163Z127.693° SE34.64°2024-12-06 02:23:15.163Z65.722° ENE
6 mins2024-12-06 03:57:15.163Z278.02° WNW2024-12-06 03:59:15.163Z317.118° NNW26.687°2024-12-06 04:03:15.163Z34.087° NE
6 mins2024-12-06 08:59:15.163Z329.97° NNW2024-12-06 09:01:15.163Z19.977° NNE35.606°2024-12-06 09:05:15.163Z107.793° ESE
|